Weather observations for the past three days for
Watonga, Watonga Airport
Imperial (Metric)
Date Time (cdt) Wind (mph) Vis. (mi.) Weather Sky Cond. Temperature (ºF) Relative Humidity Wind Chill (°F) Heat Index (°F) Pressure Precipitation (in)
Air Dwpt 6 hour altimeter (in) sea level (mb) 1 hr 3 hr 6 hr
Max. Min.
20 04:35 Calm 10.00 Partly Cloudy SCT090 68.5 66.6 93% 30.21 0.0
20 04:15 Calm 10.00 Mostly Cloudy BKN090 68.9 66.7 93% 30.21 0.0
20 03:55 Calm 10.00 Partly Cloudy SCT090 69.1 66.6 92% 30.21 0.0
20 03:35 Calm 10.00 Fair CLR 70 66.2 88% 30.21 0.0
20 03:15 Calm 10.00 Partly Cloudy SCT085 70.9 66 85% 30.21 0.0
20 02:55 Calm 10.00 Mostly Cloudy BKN085 70.9 66 85% 30.21 0.0
20 02:35 Calm 10.00 Mostly Cloudy BKN085 71.1 66 84% 30.21 0.0
20 02:15 E 3 10.00 Fair CLR 70.9 65.7 84% 30.21 0.0
20 01:55 E 6 10.00 Fair CLR 72.3 65.8 80% 30.21 0.0
20 01:35 SE 6 10.00 Fair CLR 73.6 65.8 77% 30.21 0.0
20 01:15 SE 7 10.00 Fair CLR 74.5 65.8 75% 30.22 0.0
20 00:55 SE 7 10.00 Fair CLR 74.8 65.7 88.5 74.8 73% 30.21 0.0
20 00:35 SE 7 10.00 Partly Cloudy SCT085 75 65.7 73% 76 30.21 0.0
20 00:15 SE 6 10.00 Partly Cloudy SCT085 75.4 65.3 71% 77 30.21 0.0
19 23:55 SE 5 10.00 Fair CLR 75.4 65.1 71% 77 30.21 0.0
19 23:35 S 6 10.00 Fair CLR 76.3 64.8 68% 78 30.21 0.0
19 23:15 SE 6 10.00 Fair CLR 77.2 64.4 65% 79 30.21 0.0
19 22:55 SE 7 10.00 Fair CLR 77.2 65.1 66% 79 30.2 0.0
19 22:35 SE 8 10.00 Fair CLR 78.4 65.7 65% 80 30.19 0.0
19 22:15 SE 9 10.00 Fair CLR 79 66.2 65% 81 30.18 0.0
19 21:55 SE 8 10.00 Fair CLR 79.5 66.4 64% 82 30.18 0.0
19 21:35 SE 7 10.00 Fair CLR 80.2 66.6 63% 82 30.17 0.0
19 21:15 SE 6 10.00 Fair CLR 80.6 66.2 62% 83 30.16 0.0
19 20:55 SE 9 10.00 Fair CLR 82.4 66.2 58% 85 30.15 0.0
19 20:35 SE 9 10.00 Fair CLR 83.3 65.1 54% 85 30.15 0.0
19 20:15 SE 7 10.00 Fair CLR 84.2 64.9 52% 86 30.14 0.0
19 19:55 SE 8 10.00 Fair CLR 85.3 65.1 51% 87 30.13 0.0
19 19:35 SE 12 10.00 Fair CLR 86.5 64.6 48% 88 30.13 0.0
19 19:15 SE 10 10.00 Fair CLR 87.8 64 45% 89 30.13 0.0
19 18:55 SE 7 10.00 Fair CLR 88.5 63 90.1 77.2 43% 89 30.12 0.0
19 18:35 SE 8 10.00 Partly Cloudy SCT060 88.5 63.1 43% 89 30.12 0.0
19 18:15 E 12 G 16 10.00 Partly Cloudy SCT060 88.9 63.5 43% 90 30.12 0.0
19 17:55 SE 8 10.00 Fair CLR 88.9 64.4 44% 90 30.12 0.0
19 17:35 SE 9 10.00 Fair CLR 89.2 63.9 43% 91 30.13 0.0
19 17:15 SE 8 10.00 Fair CLR 89.1 64.2 44% 91 30.13 0.0
19 16:55 E 13 10.00 Fair CLR 89.6 65.3 45% 92 30.14 0.0
19 16:35 SE 7 10.00 Partly Cloudy SCT047 87.3 64.8 47% 89 30.14 0.0
19 16:15 SE 8 10.00 Mostly Cloudy BKN047 88.2 65.8 48% 90 30.15 0.0
19 15:55 SE 7 10.00 Partly Cloudy SCT038 SCT047 86.9 65.8 50% 89 30.15 0.0
19 15:35 NE 7 10.00 Mostly Cloudy BKN037 84.7 67.6 57% 88 30.15 0.0
19 15:15 E 6 10.00 Partly Cloudy SCT035 82.8 67.1 59% 85 30.16 0.0
19 14:55 SE 6 10.00 Mostly Cloudy SCT027 BKN033 BKN039 84.2 67.6 58% 87 30.17 0.0
19 14:35 S 5 10.00 Mostly Cloudy SCT026 BKN032 81.3 67.3 62% 84 30.18 0.0
19 14:15 SE 7 10.00 Mostly Cloudy BKN024 80.6 68.4 66% 83 30.18 0.0
19 13:55 E 7 10.00 Mostly Cloudy BKN022 78.8 68.2 70% 81 30.19 0.0
19 13:35 SE 8 10.00 Partly Cloudy SCT020 79.3 68.2 69% 82 30.19 0.0
19 13:15 E 8 10.00 Partly Cloudy SCT016 78.6 68.9 72% 81 30.19 0.0
19 12:55 E 6 10.00 Partly Cloudy SCT014 78.3 68.5 78.8 66 72% 80 30.2 0.0 0.13
19 12:35 E 8 10.00 Mostly Cloudy SCT014 BKN050 77 68.4 75% 79 30.2 0.0
19 12:15 NE 8 10.00 Partly Cloudy SCT014 SCT050 75.6 67.5 76% 77 30.21 0.0
19 11:55 NE 9 10.00 Partly Cloudy SCT026 SCT038 73.9 67.8 81% 30.2 0.0 0.01
19 11:35 NE 8 10.00 Overcast BKN028 OVC038 71.6 67.6 87% 30.21 0.0 0.01
19 11:15 NE 12 10.00 Overcast SCT019 BKN028 OVC035 69.6 67.1 92% 30.21 0.0 0.01
19 10:55 NE 9 10.00 Overcast BKN021 OVC030 68.4 66 92% 30.21 0.0
19 10:35 N 8 10.00 Overcast BKN021 OVC027 68.4 66.4 93% 30.21 0.0
19 10:15 N 9 10.00 Overcast SCT007 BKN023 OVC031 68 66.2 94% 30.2 0.0
19 09:55 N 6 10.00 Overcast SCT007 BKN021 OVC044 67.5 66 95% 30.21 0.0 0.12
19 09:35 N 7 10.00 Overcast BKN027 BKN034 OVC044 66.6 65.3 96% 30.2 0.0
19 09:15 NW 5 10.00 Drizzle BKN026 OVC034 66.2 65.1 96% 30.2 0.0
19 08:55 NW 6 5.00 Light Rain Fog/Mist SCT011 OVC028 66 64.9 96% 30.2 0.0 0.05
19 08:35 W 9 4.00 Light Rain Fog/Mist SCT011 OVC028 66.2 65.1 96% 30.19 0.0 0.03
19 08:15 NW 9 3.00 Light Rain Fog/Mist OVC028 66.4 65.3 96% 30.18 0.0 0.01
19 07:55 NW 5 3.50 Light Rain Fog/Mist BKN028 OVC039 66.4 65.1 96% 30.17 0.0 0.07
19 07:35 W 6 3.50 Light Rain Fog/Mist SCT028 OVC037 66.4 65.1 96% 30.16 0.0 0.05
19 07:15 NW 5 3.00 Rain Fog/Mist SCT026 OVC035 66.2 64.8 95% 30.15 0.0 0.03
19 06:55 Calm 4.00 Light Rain Fog/Mist OVC035 66.2 64.8 78.8 65.8 95% 30.14 0.0 0.05 0.11
19 06:35 Calm 7.00 Light Rain OVC035 65.8 64.4 95% 30.14 0.0 0.03
19 06:15 N 3 7.00 Light Rain OVC033 65.8 64.2 95% 30.13 0.0 0.02
19 05:55 NE 6 5.00 Light Rain Fog/Mist OVC031 65.8 64 94% 30.12 0.0 0.04
19 05:35 NE 9 7.00 Light Rain OVC029 66.4 64 92% 30.11 0.0 0.01
19 05:15 N 6 10.00 Light Rain OVC029 66.6 64.4 93% 30.1 0.0
19 04:55 N 8 10.00 Light Rain OVC027 66.2 64.4 94% 30.1 0.0 0.02
19 04:35 N 14 7.00 Light Rain OVC024 66.6 64.2 92% 30.09 0.0 0.01
19 04:15 NE 16 G 30 10.00 Light Rain SCT015 OVC024 67.1 64 90% 30.08 0.0
19 03:55 NE 6 G 18 10.00 Drizzle SCT015 OVC024 68.5 63.5 84% 30.07 0.0
19 03:35 N 22 G 28 10.00 Overcast and Breezy OVC027 70.2 63.5 80% 30.06 0.0
19 03:15 NE 8 10.00 Overcast BKN031 BKN037 OVC043 77.2 67.5 72% 79 30.04 0.0
19 02:55 E 7 10.00 Overcast BKN035 BKN042 OVC048 77.2 67.5 72% 79 30.04 0.0
19 02:35 E 7 10.00 Overcast BKN039 OVC045 77.2 67.5 72% 79 30.03 0.0
19 02:15 E 6 10.00 Overcast OVC041 77.4 67.5 72% 79 30.02 0.0
19 01:55 SE 6 10.00 Mostly Cloudy BKN041 77.5 67.5 71% 79 30.01 0.0
19 01:35 Calm 5.00 Fair with Haze CLR 78.1 67.5 70% 80 30 0.0
19 01:15 SE 12 G 20 10.00 Fair CLR 78.6 67.5 69% 81 29.97 0.0
19 00:55 SE 15 10.00 Fair CLR 78.8 67.5 86.5 78.8 68% 81 29.95 0.0
19 00:35 SE 15 G 28 10.00 Fair CLR 79 67.5 68% 81 29.94 0.0
19 00:15 SE 18 G 24 10.00 Fair CLR 79.2 67.6 68% 81 29.94 0.0
18 23:55 SE 14 G 23 10.00 Fair CLR 79 67.6 68% 81 29.94 0.0
18 23:35 SE 16 10.00 Fair CLR 79.3 67.3 67% 82 29.93 0.0
18 23:15 SE 15 G 23 10.00 Fair CLR 79.5 67.3 66% 82 29.93 0.0
18 22:55 SE 14 G 21 10.00 Fair CLR 79.9 67.3 66% 82 29.93 0.0
18 22:35 SE 14 10.00 Partly Cloudy SCT070 80.4 67.3 64% 83 29.94 0.0
18 22:15 SE 10 G 16 10.00 Partly Cloudy SCT070 80.6 67.5 64% 83 29.94 0.0
18 21:55 SE 15 G 21 10.00 Fair CLR 81.1 67.8 64% 84 29.91 0.0
18 21:35 SE 15 G 20 10.00 Fair CLR 81.3 67.8 64% 84 29.89 0.0
18 21:15 SE 12 G 21 10.00 Fair CLR 82.2 67.1 60% 85 29.88 0.0
18 20:55 SE 18 G 25 10.00 Partly Cloudy SCT065 83.1 66.7 58% 86 29.87 0.0
18 20:35 SE 21 G 29 10.00 Overcast and Breezy OVC065 84 66.9 57% 87 29.86 0.0
18 20:15 S 17 G 22 10.00 Overcast OVC065 84.7 67.1 56% 88 29.86 0.0
18 19:55 S 15 G 28 10.00 Mostly Cloudy BKN065 85.1 66.9 55% 88 29.84 0.0
18 19:35 S 20 G 35 10.00 Partly Cloudy SCT065 84.7 66.9 55% 87 29.83 0.0
18 19:15 S 17 G 32 10.00 Mostly Cloudy SCT042 BKN055 85.3 67.6 56% 88 29.82 0.0
18 18:55 SE 23 G 30 10.00 Overcast and Breezy SCT042 OVC055 86 67.5 88.2 84.4 54% 89 29.83 0.0
18 18:35 S 18 G 30 10.00 Mostly Cloudy SCT042 BKN055 87.6 67.5 51% 91 29.82 0.0
18 18:15 S 21 G 32 10.00 Partly Cloudy and Breezy SCT055 87.8 67.6 51% 91 29.82 0.0
18 17:55 S 24 G 33 10.00 Partly Cloudy and Breezy SCT041 SCT060 87.4 68 53% 91 29.82 0.0
18 17:35 SE 18 G 31 7.00 Overcast BKN043 BKN050 OVC060 87.1 68.5 54% 91 29.82 0.0
18 17:15 SE 18 G 31 10.00 Overcast BKN043 OVC060 85.8 68.5 56% 90 29.82 0.0
18 16:55 S 17 G 24 10.00 Overcast SCT039 OVC060 86.7 68.2 54% 90 29.83 0.0
18 16:35 S 17 G 28 10.00 Overcast SCT039 SCT046 OVC060 85.6 68 56% 89 29.84 0.0
18 16:15 SE 17 G 28 10.00 Overcast SCT039 SCT046 OVC050 86.7 68.4 54% 90 29.84 0.0
18 15:55 SE 16 G 22 10.00 Overcast BKN045 OVC050 85.8 68.4 56% 89 29.84 0.0
18 15:35 S 18 G 23 10.00 Overcast BKN042 OVC049 85.5 67.8 56% 89 29.85 0.0
18 15:15 S 18 G 23 10.00 Overcast OVC040 85.1 67.5 56% 88 29.85 0.0
18 14:55 S 15 G 23 10.00 Overcast OVC040 84.6 67.3 56% 87 29.84 0.0
18 14:35 S 16 G 28 10.00 Overcast OVC040 85.1 67.1 55% 88 29.85 0.0
18 14:15 S 22 G 29 10.00 Overcast and Breezy OVC040 85.6 67.1 54% 88 29.84 0.0
18 13:55 S 22 G 31 10.00 Overcast and Breezy OVC040 85.8 66.9 53% 89 29.83 0.0
18 13:35 S 21 G 29 10.00 Overcast and Breezy OVC040 86 66.9 53% 89 29.83 0.0
18 13:15 S 20 G 26 10.00 Overcast OVC040 85.6 66.6 53% 88 29.84 0.0
18 12:55 S 23 G 33 10.00 Overcast and Breezy OVC038 86 66.6 87.1 75.4 52% 89 29.84 0.0
18 12:35 S 24 G 35 10.00 Overcast and Breezy BKN036 OVC042 85.5 66.7 54% 88 29.84 0.0
18 12:15 S 23 G 32 10.00 Overcast and Breezy OVC034 86.7 67.3 52% 90 29.83 0.0
18 11:55 S 23 G 30 10.00 Overcast and Breezy OVC034 83.3 66.7 58% 86 29.83 0.0
18 11:35 S 24 G 33 10.00 Overcast and Breezy OVC030 83.1 67.1 59% 86 29.83 0.0
18 11:15 S 23 G 32 10.00 Overcast and Breezy OVC028 82 67.3 61% 85 29.83 0.0
18 10:55 S 21 G 35 10.00 Overcast and Breezy OVC028 81.9 67.3 61% 84 29.83 0.0
18 10:35 S 26 G 36 10.00 Overcast and Windy OVC028 80.8 66.9 63% 83 29.83 0.0
18 10:15 S 24 G 35 10.00 Overcast and Breezy OVC028 80.4 66.7 63% 83 29.83 0.0
18 09:50 S 22 G 32 10.00 Overcast and Breezy OVC028 79.7 66.2 63% 82 29.84 0.0
18 09:35 S 25 G 33 10.00 Overcast and Breezy OVC028 79.2 65.8 64% 81 29.85 0.0
18 09:15 S 26 G 33 10.00 Overcast and Windy OVC026 79.2 66.7 66% 81 29.85 0.0
18 08:55 S 20 G 30 10.00 Overcast OVC024 77.7 66.9 69% 80 29.84 0.0
18 08:35 S 20 G 32 10.00 Overcast OVC024 77.9 66.7 69% 80 29.83 0.0
18 08:15 S 23 G 36 10.00 Mostly Cloudy and Breezy BKN024 BKN028 76.6 66.6 71% 78 29.82 0.0
18 07:55 S 22 G 33 10.00 Partly Cloudy and Breezy SCT024 75.6 66.4 73% 77 29.81 0.0
18 07:35 S 17 G 29 10.00 Fair CLR 75.6 66.7 74% 77 29.8 0.0
18 07:15 S 20 G 26 10.00 Fair CLR 75.9 67.6 76% 77 29.8 0.0
18 06:55 S 20 G 30 10.00 Fair CLR 75.9 68.2 80.6 75.7 77% 77 29.79 0.0
18 06:35 S 20 G 33 10.00 Partly Cloudy SCT110 76.1 68.7 78% 77 29.77 0.0
18 06:15 S 24 G 36 10.00 Fair and Breezy CLR 76.3 68.7 78% 78 29.76 0.0
18 05:55 S 30 G 37 10.00 Fair and Windy CLR 76.5 69.3 79% 78 29.75 0.0
18 05:35 S 22 G 31 10.00 Mostly Cloudy and Breezy BKN020 BKN026 77 69.8 79% 79 29.76 0.0
18 05:15 S 16 G 28 10.00 Mostly Cloudy BKN020 BKN026 76.8 69.8 79% 78 29.76 0.0
18 04:55 S 17 G 31 10.00 Mostly Cloudy BKN020 77 69.8 79% 79 29.76 0.0
18 04:35 S 24 G 32 10.00 Partly Cloudy and Breezy SCT022 77.2 69.8 78% 79 29.75 0.0
18 03:55 S 24 G 35 10.00 Fair and Breezy CLR 77.9 69.6 76% 80 29.74 0.0
18 03:35 S 28 G 36 10.00 Partly Cloudy and Windy SCT024 78.3 69.8 75% 81 29.74 0.0
18 03:15 S 25 G 33 10.00 Mostly Cloudy and Breezy BKN024 78.4 70 75% 81 29.75 0.0
18 02:55 S 23 G 30 10.00 Mostly Cloudy and Breezy BKN026 78.8 70 74% 81 29.76 0.0
18 02:35 S 20 G 31 10.00 Partly Cloudy SCT026 79 69.8 74% 82 29.75 0.0
18 02:15 S 17 G 28 10.00 Fair CLR 79.3 69.8 73% 82 29.76 0.0
18 01:55 S 18 G 28 10.00 Partly Cloudy SCT028 79.5 70 73% 82 29.76 0.0
18 01:15 S 18 G 25 10.00 Partly Cloudy SCT030 80.4 69.6 70% 84 29.77 0.0
18 00:55 S 16 G 24 10.00 Fair CLR 80.6 69.4 90.1 80.4 69% 84 29.77 0.0
18 00:35 S 20 G 23 10.00 Fair CLR 80.6 69.3 68% 84 29.78 0.0
18 00:15 SE 17 G 22 10.00 Fair CLR 81 69.1 67% 84 29.78 0.0
17 23:55 SE 15 G 25 10.00 Fair CLR 81.3 68.7 66% 84 29.78 0.0
17 23:35 SE 17 G 28 10.00 Fair CLR 81.7 68.7 65% 85 29.78 0.0
17 23:15 SE 18 G 26 10.00 Fair CLR 81.9 68.5 64% 85 29.78 0.0
17 22:55 SE 15 10.00 Fair CLR 81.7 68.2 64% 85 29.77 0.0
17 22:35 SE 16 G 23 10.00 Fair CLR 82.8 67.8 61% 86 29.77 0.0
17 22:15 SE 14 G 23 10.00 Fair CLR 83.1 67.1 59% 86 29.77 0.0
17 21:55 S 16 G 21 10.00 Fair CLR 83.7 66.6 56% 86 29.76 0.0
17 21:35 SE 14 10.00 Fair CLR 84 66 55% 86 29.76 0.0
17 21:15 SE 12 G 22 10.00 Fair CLR 84.7 66 54% 87 29.75 0.0
17 20:35 S 17 G 25 10.00 Fair CLR 86 66.2 52% 88 29.74 0.0
17 20:15 S 18 G 25 10.00 Fair CLR 87.1 66 50% 89 29.74 0.0
17 19:55 S 22 G 30 10.00 Partly Cloudy and Breezy SCT065 88.2 66.2 48% 91 29.74 0.0
17 19:35 S 21 G 30 10.00 Partly Cloudy and Breezy SCT055 SCT065 88.7 66.4 48% 91 29.74 0.0
17 19:15 SE 21 G 29 10.00 Mostly Cloudy and Breezy SCT055 BKN065 89.2 66.7 47% 92 29.73 0.0
17 18:55 S 16 G 30 10.00 Partly Cloudy SCT065 89.1 66 95.4 89.1 47% 92 29.73 0.0
17 18:35 SE 22 G 30 10.00 Partly Cloudy and Breezy SCT050 91 66.6 45% 94 29.72 0.0
17 18:15 S 18 G 33 10.00 Mostly Cloudy BKN050 91 66.2 44% 94 29.72 0.0
17 17:35 SE 18 G 31 10.00 Mostly Cloudy BKN050 91.6 66.7 44% 95 29.72 0.0
17 17:15 SE 23 G 31 10.00 Mostly Cloudy and Breezy BKN050 91.9 66.9 44% 95 29.73 0.0
17 16:55 SE 23 G 32 10.00 Mostly Cloudy and Breezy BKN050 91.6 66.9 44% 95 29.73 0.0
17 16:35 S 20 G 28 10.00 Partly Cloudy SCT050 91.2 67.1 45% 95 29.74 0.0
17 16:15 SE 18 G 32 10.00 Partly Cloudy SCT050 92.3 67.5 44% 96 29.74 0.0
17 15:55 S 22 G 35 10.00 Partly Cloudy and Breezy SCT050 SCT060 93 67.5 43% 97 29.74 0.0
17 15:35 S 20 G 32 10.00 Partly Cloudy SCT050 SCT060 93.7 67.5 42% 98 29.75 0.0
17 15:15 S 22 G 30 10.00 Partly Cloudy and Breezy SCT050 SCT060 93.7 68 43% 98 29.76 0.0
17 14:55 SE 20 G 30 10.00 Partly Cloudy SCT050 SCT060 93.9 68.4 43% 99 29.76 0.0
17 14:35 S 21 G 30 10.00 Mostly Cloudy and Breezy BKN050 92.3 67.5 44% 96 29.78 0.0
17 14:15 SE 15 G 28 10.00 Mostly Cloudy BKN050 91 67.8 47% 95 29.78 0.0
17 13:55 S 20 G 31 10.00 Partly Cloudy SCT050 92.3 67.6 44% 96 29.79 0.0
17 13:35 S 21 G 26 10.00 Partly Cloudy and Breezy SCT048 92.3 67.5 44% 96 29.79 0.0
17 13:15 S 20 G 28 10.00 Partly Cloudy SCT046 91.4 67.8 46% 95 29.8 0.0
17 12:55 S 18 G 26 10.00 Partly Cloudy SCT046 92.1 68.4 92.7 75 46% 97 29.8 0.0
17 12:35 S 17 G 28 10.00 Fair CLR 90.7 67.5 47% 94 29.81 0.0
17 12:15 S 22 G 28 10.00 Fair and Breezy CLR 90.1 67.3 47% 94 29.81 0.0
17 11:55 S 20 G 30 10.00 Fair CLR 89.4 66.9 48% 93 29.82 0.0
17 11:35 S 20 G 29 10.00 Fair CLR 89.2 66.9 48% 92 29.82 0.0
17 11:15 S 18 G 26 10.00 Fair CLR 89.1 67.5 49% 92 29.82 0.0
17 10:55 S 16 G 30 10.00 Fair CLR 88 67.1 50% 91 29.82 0.0
17 10:35 S 23 G 31 10.00 Fair and Breezy CLR 86.5 66.6 51% 89 29.82 0.0
17 10:15 S 20 G 29 10.00 Fair CLR 85.5 67.5 55% 88 29.82 0.0
17 09:55 S 23 G 29 10.00 Fair and Breezy CLR 83.8 67.3 58% 87 29.82 0.0
17 09:35 S 17 G 26 10.00 Fair CLR 82.9 68 61% 86 29.82 0.0
17 09:15 S 18 G 28 10.00 Fair CLR 81.7 67.8 63% 84 29.82 0.0
17 08:55 S 20 G 28 10.00 Fair CLR 81 67.8 64% 84 29.82 0.0
17 08:35 S 14 G 23 10.00 Fair CLR 79.9 68.4 68% 83 29.82 0.0
17 08:15 S 15 G 21 10.00 Fair CLR 78.4 68.4 71% 81 29.81 0.0
17 07:55 S 14 G 20 10.00 Fair CLR 77.2 68.4 74% 79 29.81 0.0
17 07:35 S 13 G 22 10.00 Fair CLR 76.3 68.2 76% 78 29.81 0.0
17 07:15 S 16 G 22 10.00 Fair CLR 75.4 67.5 77% 76 29.8 0.0
17 06:55 S 14 G 22 10.00 Fair CLR 74.8 66.9 78.3 74.3 76% 29.8 0.0
17 06:35 S 12 10.00 Fair CLR 74.5 66.4 76% 29.8 0.0
17 06:15 S 13 10.00 Fair CLR 74.5 66 75% 29.8 0.0
17 05:55 S 14 10.00 Fair CLR 74.5 65.7 74% 29.8 0.0
17 05:35 S 15 10.00 Fair CLR 74.8 65.7 73% 29.8 0.0
17 05:15 S 14 G 21 10.00 Fair CLR 75 65.5 72% 76 29.81 0.0
Date Time (cdt) Wind (mph) Vis. (mi.) Weather Sky Cond. Air Dwpt Max. Min. Relative Humidity Wind Chill (°F) Heat Index (°F) altimeter (in) sea level (mb) 1 hr 3 hr 6 hr
6 hour
Temperature (ºF) Pressure Precipitation (in)